Regional Weather Roundup
Issued by NWS

Home | Current Version | Previous Version | Graphics & Text | Print | Product List | Glossary On
Versions: 1 2 3 4 5 6 7 8 9 10 11 12 13 14 15 16 17 18 19 20 21 22 23 24 25 26 27 28 29 30 31 32 33 34 35 36 37 38 39 40 41 42 43 44 45 46 47 48 49 50
232
ASUS43 KFSD 171510
RWRSD

WEATHER ROUNDUP FOR SOUTH DAKOTA
NATIONAL WEATHER SERVICE SIOUX FALLS SD
1000 AM CDT THU AUG 17 2017

NOTE: "FAIR" INDICATES FEW OR NO CLOUDS BELOW 12,000 FEET WITH NO
SIGNIFICANT WEATHER AND/OR OBSTRUCTIONS TO VISIBILITY.


SDZ001>005-009-010-012>017-171600-
NORTHWEST AND NORTH CENTRAL SOUTH DAKOTA

CITY           SKY/WX    TMP DP  RH WIND       PRES   REMARKS
BUFFALO          N/A     68  53  58 S3        29.86S
FAITH            N/A     71  51  49 S20       29.91F
MOBRIDGE       SUNNY     67  62  84 SE5       29.91S
$$

SDZ012>016-024>037-041>051-057-063-072>074-171600-
SOUTHWEST AND SOUTH CENTRAL SOUTH DAKOTA

CITY           SKY/WX    TMP DP  RH WIND       PRES   REMARKS
RAPID CTY ARPT CLOUDY    65  53  65 SE6       29.95S
PIERRE         SUNNY     65  51  60 SE3       29.94S
CUSTER         CLOUDY    64  41  42 W6        30.10S
ELLSWORTH AFB  CLOUDY    67  52  58 S6        29.93S
PHILIP         SUNNY     72  54  53 SE7       29.93F
PINE RIDGE     SUNNY     70  55  59 S9        29.99F
SPEARFISH      FAIR      77  43  29 W7        29.98R
WINNER         FAIR      73  56  54 CALM      29.97S
$$

SDZ004>011-016>023-039-040-171600-
NORTHEAST SOUTH DAKOTA

CITY           SKY/WX    TMP DP  RH WIND       PRES   REMARKS
ABERDEEN       SUNNY     70  61  73 NW10      29.90R
WATERTOWN      MOSUNNY   66  60  81 NW18G26   29.86R
BROOKINGS      PTSUNNY   66  60  81 NW16      29.87R
SISSETON         N/A     65  61  87 NW15      29.84R
$$

SDZ017-020-022-023-036>040-048>070-171600-
SOUTHEAST SOUTH DAKOTA

CITY           SKY/WX    TMP DP  RH WIND       PRES   REMARKS
SIOUX FALLS    MOSUNNY   68  62  81 NW15      29.89R
HURON          SUNNY     67  60  78 NW10      29.92R
CHAMBERLAIN    SUNNY     68  58  71 W5        29.97S
MITCHELL       SUNNY     68  59  73 NW9       29.93R
YANKTON        SUNNY     69  60  73 NW16      29.93R
$$

ABBREVIATIONS USED IN REMARKS
   TC - TEMPERATURE IN CELSIUS
  WCI - WIND CHILL INDEX
   HX - HEAT INDEX
  VSB - VISIBILITY





USA.gov is the U.S. government's official web portal to all federal, state and local government web resources and services.